Weather History for Litchfield, MN

Change the Weather History Date:

Monday, November 5, 2012

  Actual Average Record
Temperature  
Mean Temperature 36 °F -  
Max Temperature 39 °F 44 °F 74 °F (1975)
Min Temperature 33 °F 28 °F 0 °F (1951)
Degree Days  
Heating Degree Days 29    
Moisture  
Dew Point 37 °F    
Average Humidity 100    
Maximum Humidity 100    
Minimum Humidity 93    
Precipitation  
Precipitation 0.00 in - - ()
Sea Level Pressure  
Sea Level Pressure 30.10 in    
Wind  
Wind Speed 6 mph (ESE)    
Max Wind Speed 9 mph    
Max Gust Speed -    
Visibility 4 miles    
Events Rain    
Averages and records for this station are not official NWS values.
T = Trace of Precipitation, MM = Missing Value Source: NWS Daily Summary

Daily Weather History Graph

Daily Weather History Graph

Search for Another Location

Airport:

Trip Planner

Search our weather history database for the weather conditions in past years. The results will help you decide how hot, cold, wet, or windy it might be!

Date:

Astronomy

Nov. 05, 2012 Rise Set
Actual Time 7:02 AM CST 4:59 PM CST
Civil Twilight 6:31 AM CST 5:30 PM CST
Nautical Twilight 5:56 AM CST 6:05 PM CST
Astronomical Twilight 5:22 AM CST 6:40 PM CST
Moon 10:38 PM CST (11/5) 12:23 PM CST (11/5)
Length of Visible Light 10h 58m
Length of Day
9h 56m
Waning Gibbous, 62% of the Moon is Illuminated
Nov 5
Waning Gibbous
Nov 6
Last Quarter
Nov 13
New
Nov 20
First Quarter
Nov 28
Full

Hourly Weather History & Observations

Time (CST) Temp. Windchill Dew Point Humidity Pressure Visibility Wind Dir Wind Speed Gust Speed Precip Events Conditions
12:13 AM 37.4 °F 32.8 °F 37.4 °F 100% 30.14 in 5.0 mi ENE 5.8 mph - N/A   Overcast
12:33 AM 37.4 °F 32.8 °F 37.4 °F 100% 30.14 in 3.0 mi ENE 5.8 mph - N/A   Light Drizzle
12:53 AM 37.4 °F 31.4 °F 37.4 °F 100% 30.14 in 4.0 mi ENE 8.1 mph - N/A   Light Drizzle
1:13 AM 37.4 °F 30.8 °F 37.4 °F 100% 30.14 in 4.0 mi ENE 9.2 mph - N/A   Light Drizzle
1:33 AM 37.4 °F 31.4 °F 37.4 °F 100% 30.14 in 4.0 mi ENE 8.1 mph - N/A   Light Drizzle
1:53 AM 37.4 °F 32.1 °F 37.4 °F 100% 30.14 in 4.0 mi ENE 6.9 mph - N/A   Overcast
2:13 AM 37.4 °F 31.4 °F 35.6 °F 93% 30.14 in 5.0 mi ENE 8.1 mph - N/A   Overcast
2:33 AM 37.4 °F 32.1 °F 35.6 °F 93% 30.15 in 4.0 mi ENE 6.9 mph - N/A   Overcast
2:53 AM 35.6 °F 29.9 °F 35.6 °F 100% 30.15 in 5.0 mi ENE 6.9 mph - N/A   Overcast
3:13 AM 35.6 °F 30.7 °F 35.6 °F 100% 30.16 in 5.0 mi NE 5.8 mph - N/A   Overcast
3:33 AM 35.6 °F 29.2 °F 35.6 °F 100% 30.15 in 7.0 mi NE 8.1 mph - N/A   Overcast
3:53 AM 35.6 °F 28.6 °F 35.6 °F 100% 30.15 in 7.0 mi ENE 9.2 mph - N/A   Overcast
4:13 AM 35.6 °F 29.9 °F 35.6 °F 100% 30.15 in 4.0 mi ENE 6.9 mph - N/A Rain Rain
4:33 AM 35.6 °F 29.2 °F 35.6 °F 100% 30.16 in 5.0 mi NE 8.1 mph - N/A   Light Drizzle
4:53 AM 33.8 °F 27.0 °F 33.8 °F 100% 30.16 in 5.0 mi ENE 8.1 mph - N/A   Light Drizzle
5:13 AM 33.8 °F 27.7 °F 33.8 °F 100% 30.16 in 7.0 mi ENE 6.9 mph - N/A   Light Drizzle
5:33 AM 33.8 °F 28.6 °F 33.8 °F 100% 30.16 in 7.0 mi ENE 5.8 mph - N/A   Overcast
6:13 AM 33.8 °F 27.0 °F 33.8 °F 100% 30.16 in 5.0 mi ENE 8.1 mph - N/A   Light Drizzle
6:33 AM 33.8 °F 28.6 °F 33.8 °F 100% 30.17 in 5.0 mi ENE 5.8 mph - N/A   Light Drizzle
6:53 AM 33.8 °F 28.6 °F 33.8 °F 100% 30.17 in 5.0 mi ENE 5.8 mph - N/A   Light Drizzle
7:13 AM 33.8 °F 27.7 °F 33.8 °F 100% 30.17 in 4.0 mi ENE 6.9 mph - N/A   Overcast
7:33 AM 33.8 °F 28.6 °F 33.8 °F 100% 30.17 in 4.0 mi ENE 5.8 mph - N/A   Overcast
7:53 AM 33.8 °F 28.6 °F 33.8 °F 100% 30.17 in 3.0 mi ENE 5.8 mph - N/A   Overcast
8:13 AM 33.8 °F 28.6 °F 33.8 °F 100% 30.18 in 2.0 mi ENE 5.8 mph - N/A   Overcast
8:33 AM 33.8 °F 27.0 °F 33.8 °F 100% 30.17 in 2.0 mi East 8.1 mph - N/A   Light Drizzle
8:53 AM 33.8 °F 27.7 °F 33.8 °F 100% 30.18 in 2.5 mi East 6.9 mph - N/A   Light Drizzle
9:13 AM 33.8 °F 28.6 °F 33.8 °F 100% 30.18 in 3.0 mi ENE 5.8 mph - N/A   Light Drizzle
9:33 AM 33.8 °F 27.0 °F 33.8 °F 100% 30.17 in 2.5 mi East 8.1 mph - N/A   Light Drizzle
9:53 AM 33.8 °F 27.7 °F 33.8 °F 100% 30.17 in 1.5 mi East 6.9 mph - N/A   Light Drizzle
10:13 AM 35.6 °F 30.7 °F 35.6 °F 100% 30.18 in 1.8 mi East 5.8 mph - N/A   Overcast
10:33 AM 35.6 °F 29.9 °F 35.6 °F 100% 30.18 in 1.5 mi East 6.9 mph - N/A   Overcast
10:53 AM 35.6 °F 30.7 °F 35.6 °F 100% 30.18 in 1.8 mi East 5.8 mph - N/A   Overcast
11:13 AM 35.6 °F 29.9 °F 35.6 °F 100% 30.17 in 1.8 mi East 6.9 mph - N/A   Overcast
11:33 AM 37.4 °F 32.1 °F 37.4 °F 100% 30.16 in 1.8 mi East 6.9 mph - N/A   Overcast
11:53 AM 37.4 °F 31.4 °F 37.4 °F 100% 30.16 in 1.5 mi ESE 8.1 mph - N/A   Overcast
12:13 PM 37.4 °F 32.8 °F 37.4 °F 100% 30.15 in 1.5 mi ESE 5.8 mph - N/A   Overcast
12:33 PM 37.4 °F 32.8 °F 37.4 °F 100% 30.14 in 1.2 mi ESE 5.8 mph - N/A   Overcast
12:53 PM 37.4 °F 34.9 °F 37.4 °F 100% 30.14 in 0.8 mi ESE 3.5 mph - N/A   Overcast
1:13 PM 37.4 °F 33.8 °F 37.4 °F 100% 30.13 in 0.8 mi ESE 4.6 mph - N/A   Overcast
1:33 PM 39.2 °F 35.0 °F 39.2 °F 100% 30.12 in 1.0 mi ESE 5.8 mph - N/A   Overcast
1:53 PM 39.2 °F 33.6 °F 39.2 °F 100% 30.11 in 1.0 mi ESE 8.1 mph - N/A   Overcast
2:13 PM 39.2 °F 33.6 °F 39.2 °F 100% 30.09 in 0.8 mi ESE 8.1 mph - N/A   Overcast
2:33 PM 39.2 °F 35.0 °F 39.2 °F 100% 30.09 in 0.8 mi SE 5.8 mph - N/A   Overcast
2:53 PM 39.2 °F - 39.2 °F 100% 30.09 in 0.8 mi Calm Calm - N/A   Overcast
3:13 PM 39.2 °F - 39.2 °F 100% 30.08 in 1.0 mi Calm Calm - N/A   Drizzle
3:33 PM 39.2 °F 37.0 °F 39.2 °F 100% 30.08 in 1.5 mi SSW 3.5 mph - N/A   Drizzle
3:53 PM 39.2 °F 37.0 °F 39.2 °F 100% 30.07 in 1.8 mi South 3.5 mph - N/A   Light Drizzle
4:13 PM 39.2 °F - 39.2 °F 100% 30.07 in 1.8 mi Calm Calm - N/A   Overcast
4:33 PM 39.2 °F 35.9 °F 39.2 °F 100% 30.07 in 3.0 mi SSW 4.6 mph - N/A   Overcast
4:53 PM 39.2 °F 35.9 °F 39.2 °F 100% 30.06 in 3.0 mi SSW 4.6 mph - N/A   Overcast
5:13 PM 39.2 °F 35.9 °F 39.2 °F 100% 30.05 in 3.0 mi SSW 4.6 mph - N/A   Overcast
5:33 PM 39.2 °F - 39.2 °F 100% 30.05 in 3.0 mi Calm Calm - N/A   Overcast
5:53 PM 39.2 °F 35.9 °F 39.2 °F 100% 30.05 in 3.0 mi SW 4.6 mph - N/A   Overcast
6:13 PM 39.2 °F 37.0 °F 39.2 °F 100% 30.05 in 4.0 mi SW 3.5 mph - N/A   Overcast
6:33 PM 39.2 °F 35.0 °F 39.2 °F 100% 30.04 in 5.0 mi SW 5.8 mph - N/A   Overcast
6:53 PM 37.4 °F 33.8 °F 37.4 °F 100% 30.04 in 4.0 mi SW 4.6 mph - N/A   Overcast
7:13 PM 37.4 °F 32.8 °F 37.4 °F 100% 30.03 in 7.0 mi SW 5.8 mph - N/A   Overcast
7:33 PM 37.4 °F 33.8 °F 37.4 °F 100% 30.03 in 5.0 mi SW 4.6 mph - N/A   Overcast
7:53 PM 37.4 °F 34.9 °F 37.4 °F 100% 30.02 in 5.0 mi WSW 3.5 mph - N/A   Overcast
8:13 PM 37.4 °F 34.9 °F 37.4 °F 100% 30.01 in 5.0 mi SSW 3.5 mph - N/A   Overcast
8:33 PM 37.4 °F - 37.4 °F 100% 29.99 in 5.0 mi Calm Calm - N/A   Overcast
8:53 PM 37.4 °F 34.9 °F 37.4 °F 100% 29.99 in 5.0 mi SSW 3.5 mph - N/A   Overcast
9:13 PM 37.4 °F 34.9 °F 37.4 °F 100% 29.98 in 4.0 mi South 3.5 mph - N/A   Overcast
9:33 PM 37.4 °F 34.9 °F 37.4 °F 100% 29.97 in 5.0 mi South 3.5 mph - N/A   Overcast
9:53 PM 37.4 °F 33.8 °F 37.4 °F 100% 29.95 in 4.0 mi South 4.6 mph - N/A   Overcast
10:13 PM 37.4 °F 33.8 °F 37.4 °F 100% 29.94 in 4.0 mi South 4.6 mph - N/A   Overcast
10:33 PM 37.4 °F 33.8 °F 37.4 °F 100% 29.93 in 5.0 mi SSW 4.6 mph - N/A   Overcast
10:53 PM 37.4 °F 33.8 °F 37.4 °F 100% 29.93 in 5.0 mi South 4.6 mph - N/A   Mostly Cloudy
11:13 PM 37.4 °F 33.8 °F 37.4 °F 100% 29.92 in 5.0 mi South 4.6 mph - N/A   Mostly Cloudy
11:33 PM 37.4 °F - 37.4 °F 100% 29.92 in 5.0 mi Calm Calm - N/A Rain Light Rain